Theta_e
316 316 317 319 317 312 315 316 313 315 316 317 320 321 317 321 319 319 330 335 332 332 331 331 330 328 326 320 317 315 313 312 313 328 329 325 315 311 310 313 326 325 328 330 327 316 312 312 312
315 316 318 321 317 316 314 313 315 315 319 322 322 323 324 324 331 330 334 333 332 332 331 330 328 328 326 322 319 317 315 314 314 331 331 321 311 310 309 310 321 327 327 329 323 317 312 313 313
314 317 321 313 311 315 314 313 313 316 322 318 320 323 325 325 329 330 334 335 336 333 331 330 326 329 327 323 321 319 318 316 322 329 328 316 311 309 309 309 320 328 328 329 323 322 318 318 315
316 317 315 313 316 315 314 313 314 315 317 317 321 322 325 325 328 332 335 336 336 333 331 330 326 329 328 325 323 321 319 318 317 322 323 315 312 309 308 308 316 321 327 327 325 320 323 322 323
318 317 312 314 316 314 312 315 315 314 316 318 319 321 326 324 330 333 335 336 336 335 332 331 327 330 329 326 324 322 321 321 318 318 317 316 314 310 308 307 310 311 319 325 319 321 319 321 323
317 314 312 315 315 314 315 315 315 314 315 318 321 324 326 326 328 332 334 336 337 334 332 331 330 330 329 327 326 325 323 323 321 320 319 317 315 311 309 307 307 308 315 323 311 312 313 315 319
313 309 313 313 314 316 316 316 314 313 314 317 321 321 324 329 328 331 333 336 338 335 333 331 331 330 330 329 327 326 325 324 324 323 322 320 316 313 311 310 309 308 309 310 310 311 312 315 319
317 309 313 313 313 316 314 316 316 315 314 317 320 318 322 323 325 333 334 334 336 335 333 331 332 330 331 330 328 327 326 326 325 325 324 321 317 314 313 314 313 312 311 311 311 312 313 314 316
316 310 311 313 313 315 313 314 315 315 316 317 320 318 319 321 327 335 335 334 332 333 334 332 332 331 330 331 330 328 327 327 327 326 325 321 318 317 316 316 316 315 314 314 314 313 313 312 312
313 310 311 311 311 313 313 315 315 316 315 316 317 318 320 323 324 332 334 331 332 332 332 333 332 332 331 330 330 330 329 328 328 327 326 323 320 319 318 318 318 317 318 317 317 316 315 315 314
311 312 311 311 312 314 314 314 315 314 313 316 317 318 320 323 325 328 331 329 331 331 330 329 332 333 332 330 330 330 329 329 328 327 325 323 322 320 319 319 319 319 319 319 319 318 317 315 314
312 311 311 312 313 313 313 314 313 314 316 316 317 317 319 322 323 322 327 328 330 330 330 331 329 330 333 332 330 330 330 329 328 327 325 324 322 322 321 321 320 320 320 320 320 319 317 316 314
310 310 311 312 312 312 312 312 312 313 315 315 316 316 318 320 320 321 323 328 329 329 329 331 330 330 330 331 330 330 329 330 329 327 325 324 323 322 322 321 321 321 320 320 320 319 318 316 315
311 311 311 311 311 312 311 310 311 311 312 313 315 315 317 319 319 320 323 326 329 329 328 329 330 330 330 329 329 330 329 330 330 328 327 325 324 323 322 322 321 320 321 320 319 319 318 317 315
311 312 310 311 311 311 311 309 309 312 312 312 313 315 316 318 320 319 318 319 322 325 328 329 330 331 331 330 329 329 328 328 329 330 328 326 325 324 322 321 321 321 321 320 320 320 318 316 315
309 307 309 308 310 311 310 307 308 310 311 311 311 312 314 316 318 319 320 320 320 324 325 329 332 332 332 331 330 330 328 328 328 329 330 328 325 325 323 323 322 321 320 321 320 320 320 317 314
306 307 308 308 309 310 308 308 308 312 312 311 311 311 312 313 314 316 317 318 319 320 321 324 329 332 333 333 331 331 331 330 329 329 329 329 328 326 325 324 323 321 321 320 320 320 320 318 315
309 309 307 308 309 310 310 308 307 311 311 312 312 313 313 314 314 314 314 314 316 318 320 321 323 327 332 333 332 332 331 331 331 330 329 329 329 328 326 326 326 325 323 320 321 320 319 317 315
307 308 309 308 309 311 309 308 308 310 310 311 313 314 314 314 314 313 313 314 314 315 317 319 320 322 327 333 333 332 333 332 331 331 329 329 330 330 328 327 326 326 326 324 323 322 321 319 319
307 308 308 308 309 310 308 308 307 307 309 312 313 313 314 314 314 314 312 313 313 314 314 315 317 319 322 326 330 332 333 333 331 332 331 331 328 330 330 328 327 325 326 324 324 322 322 321 317
307 306 307 308 307 307 305 305 306 306 307 311 312 313 313 313 312 313 313 314 314 313 314 314 315 315 316 320 328 331 333 332 334 332 331 331 330 329 324 327 328 326 325 325 324 323 322 321 320
307 305 307 309 308 308 305 306 305 305 305 305 310 312 312 311 312 312 313 313 313 315 313 314 316 316 315 317 323 327 329 330 331 330 332 331 329 329 328 328 327 327 327 326 325 324 323 323 321
307 305 307 308 307 308 307 307 305 305 307 306 308 310 311 314 314 315 313 313 313 314 313 313 314 314 314 314 318 322 327 329 330 330 332 331 330 330 329 328 326 326 327 327 326 325 323 323 322
306 306 305 305 305 308 306 306 304 305 306 307 308 310 311 314 314 313 314 315 314 315 315 315 314 313 314 314 315 319 322 325 327 330 331 329 331 330 329 329 327 327 327 326 326 324 323 323 322
307 307 308 308 308 309 304 305 306 306 304 304 305 308 310 315 315 315 315 316 316 316 316 315 314 315 314 314 314 316 320 323 327 330 330 332 329 328 328 328 326 325 323 322 322 322 322 322 321
306 307 308 307 308 307 305 307 307 304 306 309 310 312 313 314 315 316 316 316 316 316 316 316 315 315 314 315 318 321 325 327 329 329 329 329 328 326 324 322 320 320 322 321 321 319 320 317 319
308 308 306 305 295 306 306 306 306 307 308 310 310 311 311 311 312 313 314 314 315 315 314 314 316 318 320 322 323 324 325 327 328 326 325 326 324 323 321 319 318 318 319 319 319 318 317 317 316
308 307 308 306 305 307 306 306 308 310 309 310 309 310 312 312 313 313 313 313 313 313 313 313 313 313 314 314 314 315 316 319 320 320 318 316 314 313 312 312 313 314 316 317 317 317 315 315 314
308 308 308 308 308 310 307 307 303 305 309 308 309 311 312 312 312 313 312 312 312 312 312 312 312 312 312 312 312 312 312 312 312 311 311 311 310 310 309 309 310 311 312 312 313 313 314 313 312
309 308 308 309 307 306 306 309 308 306 306 309 310 312 313 313 312 312 312 312 312 311 311 311 311 312 312 312 312 312 312 312 312 312 312 311 311 310 310 309 309 308 308 309 309 309 308 308 309
Wind_Speed
3 3 2 1 4 5 1 2 0 4 3 4 7 6 7 4 4 3 6 21 20 18 16 14 12 11 10 9 9 10 10 12 14 13 9 9 11 14 14 16 17 17 20 19 18 16 16 15 14
3 3 1 2 4 3 4 2 5 4 7 16 10 5 2 1 3 6 18 19 20 18 16 14 14 12 11 10 10 10 11 12 14 12 10 10 12 13 13 14 16 17 18 18 16 16 15 16 15
3 3 2 4 3 4 4 4 5 4 15 4 4 4 3 2 3 15 20 20 20 18 16 15 14 12 11 11 11 10 10 11 13 12 7 8 11 12 12 12 14 18 18 17 15 16 17 18 17
5 3 5 4 3 3 3 5 8 7 3 4 7 5 3 1 8 14 18 19 20 18 16 15 13 13 12 10 10 10 10 10 10 10 7 8 9 9 10 11 11 16 17 15 15 16 17 16 18
3 3 4 3 2 2 2 5 11 5 4 6 6 4 2 6 10 12 18 18 19 19 17 16 14 13 12 10 10 9 9 9 9 7 6 6 7 8 8 9 9 12 15 14 13 15 14 16 18
2 2 4 2 2 1 2 7 7 4 5 8 6 8 5 11 8 13 16 17 16 18 18 17 15 13 12 10 9 8 7 7 7 6 5 5 6 7 8 8 7 9 13 13 11 11 13 14 15
5 4 4 4 3 1 4 10 4 8 7 6 8 5 4 15 11 11 15 15 15 17 18 18 17 15 13 11 10 8 7 6 6 5 4 4 5 6 7 7 7 9 10 9 10 10 11 12 11
3 5 3 2 4 4 7 11 3 9 7 6 10 5 4 18 15 16 16 16 14 16 19 18 18 17 15 14 11 9 8 7 5 4 3 3 4 6 7 7 7 8 9 9 9 9 9 9 7
3 4 2 4 6 3 8 5 5 4 7 9 10 4 4 16 19 22 21 18 16 17 18 20 20 18 17 15 13 12 10 9 7 5 4 4 4 6 7 7 8 8 8 9 9 9 8 6 4
4 4 8 4 3 4 9 4 9 3 4 7 10 9 7 18 21 26 28 28 25 24 20 19 21 20 19 17 16 14 13 11 8 6 5 5 5 6 6 7 7 7 7 7 7 7 6 5 4
4 5 4 3 2 3 9 3 8 6 4 12 18 16 14 20 23 25 27 25 26 23 23 22 20 20 21 20 18 17 15 13 11 9 7 6 6 6 6 5 5 6 6 5 5 4 4 4 4
2 3 5 3 3 4 6 6 4 11 7 7 14 14 17 23 26 26 27 26 27 26 24 22 21 21 20 21 21 19 18 16 15 11 9 7 6 5 5 4 4 5 4 3 3 2 2 2 2
2 3 4 2 2 1 2 3 4 11 14 12 9 16 20 22 24 25 25 26 26 26 25 25 22 22 23 22 23 22 21 19 17 15 13 11 10 8 4 4 5 6 5 5 3 2 1 1 1
3 3 2 2 1 2 1 1 1 4 4 17 15 13 19 23 23 26 28 29 29 27 27 26 26 23 22 23 25 24 22 21 21 19 17 15 14 13 7 8 8 9 9 9 8 6 5 5 5
4 4 2 3 2 1 2 6 8 15 6 4 18 16 17 22 27 27 23 27 28 29 28 28 28 27 26 24 25 23 23 24 23 23 21 20 18 18 13 12 13 10 12 12 11 10 10 8 9
4 5 2 4 2 1 4 8 4 4 8 16 14 16 19 23 27 27 26 28 29 30 31 31 32 31 31 29 26 27 25 25 27 24 24 24 23 22 19 20 17 18 18 16 15 14 13 14 13
6 3 3 7 5 1 3 7 4 1 1 5 10 14 15 20 24 27 28 28 29 30 31 33 35 37 35 33 30 29 29 27 25 24 22 24 26 25 25 23 23 21 21 20 18 18 17 17 16
5 4 2 4 1 0 1 11 8 15 11 12 10 11 14 17 20 19 22 25 29 31 31 33 35 36 37 37 36 34 34 34 31 28 26 25 27 29 29 27 25 25 24 24 21 21 20 19 19
5 4 4 2 1 2 6 8 14 19 18 22 22 23 23 24 23 23 23 24 26 30 34 35 35 37 38 40 42 41 39 37 36 33 29 29 28 31 32 31 29 29 29 26 25 25 25 25 24
4 3 2 3 1 3 5 10 12 13 15 23 25 27 28 28 31 32 29 26 30 31 31 34 36 36 37 40 41 43 40 40 38 35 33 32 33 32 33 34 34 32 30 31 31 31 31 29 28
3 5 4 6 3 2 6 8 7 5 10 25 29 34 34 34 34 28 20 18 24 34 36 34 34 36 36 38 41 43 41 41 40 39 37 33 33 33 31 33 36 37 36 35 35 35 32 36 31
6 8 5 3 3 3 2 6 6 5 8 7 22 25 26 26 26 26 23 23 20 18 29 33 32 33 36 39 41 43 43 43 43 41 38 33 29 33 32 34 34 38 41 40 39 34 38 37 37
6 6 6 3 3 1 3 2 7 3 5 10 15 16 13 12 14 15 15 14 16 17 19 29 33 33 33 38 40 41 42 41 41 39 36 36 35 36 35 34 34 39 46 45 43 44 36 42 41
10 7 7 4 2 3 7 7 5 4 7 4 2 3 11 13 10 5 4 7 9 11 12 18 24 26 28 32 37 39 38 40 40 39 36 33 34 36 34 34 36 38 41 48 53 48 41 48 43
3 7 2 2 1 6 3 3 5 6 10 6 10 16 12 9 7 5 3 2 1 3 6 11 16 19 23 26 29 30 32 33 33 34 32 32 29 28 29 33 35 32 41 36 45 48 46 50 44
7 8 6 8 4 3 2 7 6 8 7 9 8 8 6 4 2 2 2 2 1 2 2 3 8 11 13 16 19 20 22 23 24 23 27 27 26 24 27 30 33 33 35 39 40 40 45 45 48
6 7 5 7 2 3 5 7 8 7 4 1 3 4 3 1 2 2 1 2 3 5 4 4 4 5 7 9 12 14 16 17 18 21 24 24 26 28 29 31 31 33 31 34 33 39 39 38 39
7 8 3 2 3 3 5 6 7 2 6 3 4 7 6 4 1 1 1 2 4 5 6 6 6 7 9 11 12 12 12 14 15 18 20 22 23 24 25 26 26 28 31 34 33 31 31 33 33
3 4 2 4 5 6 2 7 7 8 6 7 4 8 10 7 3 0 2 3 4 5 6 7 9 9 8 8 8 7 7 8 8 8 10 12 13 15 17 20 21 23 25 27 30 34 36 36 36
3 10 7 5 5 3 3 12 3 4 8 11 8 8 10 9 7 4 2 4 3 2 4 7 10 11 11 9 8 7 5 3 4 6 10 13 14 16 16 17 19 20 23 25 27 29 30 30 31
Wind_Direction
250 246 242 323 60 67 178 212 288 133 162 167 142 170 186 128 167 203 163 163 174 167 155 161 157 147 135 129 119 112 110 105 115 107 84 77 81 85 86 95 96 94 88 92 88 84 93 94 102
236 217 141 111 89 76 268 257 197 187 141 119 114 125 94 115 125 144 148 158 172 178 169 161 156 152 145 138 127 116 110 104 111 105 102 81 75 81 86 97 100 92 94 92 88 83 78 84 92
204 181 146 93 109 163 197 205 181 149 152 133 122 89 88 124 149 157 158 163 169 179 174 167 160 159 154 145 134 123 115 112 114 119 111 82 81 83 88 95 98 90 96 90 85 81 79 82 90
182 141 64 87 186 224 201 174 163 135 169 187 140 75 104 140 161 158 165 169 170 178 178 172 166 163 159 151 140 131 125 119 120 123 107 85 82 87 92 101 102 104 102 97 90 85 86 87 87
152 96 64 88 268 273 251 161 157 142 157 158 152 181 141 156 155 164 173 171 172 177 181 176 171 169 165 159 147 138 132 125 127 123 106 88 85 91 94 105 109 99 103 107 97 92 91 95 102
96 79 70 170 263 315 106 158 147 152 165 155 128 148 151 164 167 175 176 170 174 183 184 181 177 176 173 168 160 152 145 135 129 123 107 102 103 105 105 107 108 93 107 110 91 89 89 91 101
117 82 174 154 188 85 174 164 169 177 175 197 155 133 187 181 164 176 174 177 177 190 194 188 186 183 181 178 174 167 162 152 139 129 111 100 101 105 109 113 111 106 107 103 89 92 92 98 105
129 91 116 206 184 220 166 164 220 176 197 181 173 180 215 191 174 171 177 180 182 194 202 199 196 193 189 185 183 179 176 172 163 152 132 121 121 118 118 118 111 104 105 99 96 93 95 98 101
130 65 169 203 155 216 158 159 175 206 172 180 198 210 217 179 175 175 180 179 183 202 210 209 205 202 198 194 191 189 188 187 184 179 162 151 141 133 131 124 119 116 108 100 97 92 84 76 77
96 121 210 202 200 185 172 167 162 172 193 212 214 211 194 183 184 182 187 186 193 201 205 211 213 210 207 204 202 200 200 199 197 188 182 172 161 151 148 141 129 121 108 102 97 91 84 73 64
143 186 202 221 176 162 158 182 163 152 250 222 216 209 199 192 195 196 199 202 198 202 202 209 215 214 217 215 212 211 208 207 202 197 185 187 179 169 163 157 148 137 121 107 100 84 69 69 65
153 214 172 175 161 135 155 150 199 199 215 252 245 231 214 200 202 205 208 209 205 204 208 210 210 221 223 225 224 221 217 213 210 206 199 187 175 170 174 170 172 168 162 147 126 92 66 73 91
178 198 180 212 209 167 187 198 224 248 243 254 255 224 222 216 214 215 215 215 215 214 215 215 215 217 222 226 229 232 226 221 219 215 207 202 202 187 194 200 201 200 201 201 220 222 235 233 229
202 125 136 197 229 271 252 247 201 236 278 225 231 227 222 224 222 217 218 221 222 223 222 221 224 224 224 223 228 232 238 234 225 222 219 216 217 216 207 238 231 225 225 225 226 235 234 240 237
103 117 2 240 197 267 200 303 236 249 224 250 230 232 228 227 226 227 232 229 229 229 229 228 230 229 230 233 229 228 230 234 235 231 226 225 224 225 230 238 242 241 248 245 244 242 241 235 239
68 52 86 316 161 223 140 267 269 272 253 241 237 233 231 231 235 237 235 236 236 235 236 233 232 234 234 235 236 233 233 234 232 236 234 232 230 231 232 233 239 240 234 242 246 246 246 237 229
16 176 178 312 222 130 150 265 271 192 71 272 248 243 239 241 242 244 242 240 240 240 238 238 236 235 235 237 239 238 237 240 240 238 238 237 237 235 237 241 242 242 243 245 247 250 248 243 240
173 182 204 233 249 185 204 266 271 267 283 281 272 260 252 250 252 252 250 248 244 243 241 240 240 240 237 237 238 239 238 238 241 242 243 242 242 240 240 242 244 245 245 246 253 250 248 247 242
125 135 177 225 288 203 233 265 277 283 284 278 270 267 264 265 265 261 256 250 246 243 242 240 238 239 238 235 235 237 239 241 242 240 246 245 249 242 243 244 246 247 247 249 250 250 252 249 251
118 132 227 288 37 157 329 274 271 269 264 267 269 268 267 268 269 269 267 259 250 246 243 241 238 237 238 239 239 240 242 245 247 248 244 242 246 250 249 241 246 249 252 249 249 250 248 246 241
159 164 188 223 354 66 334 283 265 292 264 265 264 265 269 270 274 282 269 257 256 246 238 238 240 239 238 239 239 240 239 245 245 247 248 250 246 246 257 255 248 246 245 247 249 250 257 250 248
191 200 165 173 94 237 18 285 293 272 298 299 278 270 270 282 286 283 276 266 255 264 240 235 237 240 239 237 238 239 240 241 246 251 251 250 258 256 254 256 256 257 246 248 247 251 253 252 250
217 134 150 105 117 51 321 331 271 347 292 268 264 283 314 332 309 273 261 255 245 241 234 231 235 238 239 238 237 240 242 246 249 253 251 254 249 252 253 253 260 261 252 254 248 248 249 248 251
147 79 53 60 93 287 199 176 257 210 218 276 279 13 345 341 354 342 268 261 241 241 244 239 236 237 239 238 236 239 244 247 250 252 257 259 259 257 260 259 260 264 260 252 254 267 257 250 251
92 97 18 346 4 232 339 166 243 241 240 228 287 306 319 339 352 10 22 38 175 235 248 236 226 233 236 233 233 239 245 251 255 257 261 261 262 263 267 265 259 262 262 265 266 253 255 263 247
186 159 164 197 199 241 58 233 254 236 303 289 281 312 305 293 321 334 353 51 326 302 284 237 234 234 227 226 231 237 243 248 252 256 257 259 263 261 267 269 268 267 269 273 261 272 264 260 250
207 212 169 105 36 64 215 283 291 264 225 71 339 333 16 192 204 216 293 297 279 269 264 238 212 207 215 222 229 235 239 243 244 246 253 259 266 266 266 264 260 258 262 264 272 266 266 271 268
162 155 78 5 138 245 264 274 226 152 198 123 24 32 33 42 5 307 230 220 236 237 239 236 227 222 219 223 225 227 230 235 241 247 253 258 261 264 264 265 262 260 257 260 263 269 270 270 272
135 182 137 136 167 187 231 247 208 212 155 145 126 85 74 73 84 168 260 275 274 263 241 221 210 203 199 198 196 196 203 215 226 244 261 269 274 275 276 273 270 265 262 261 261 261 264 267 269
310 200 161 163 225 246 166 257 7 183 155 139 126 96 82 75 67 55 304 266 280 256 171 158 152 143 139 142 148 155 163 215 264 289 295 297 299 295 293 290 286 281 276 271 267 267 268 269 268